Time,TemperatureF,DewpointF,PressureIn,WindDirection,WindDirectionDegrees,WindSpeedMPH,WindSpeedGustMPH,Humidity,HourlyPrecipIn,Conditions,Clouds,dailyrainin,SoftwareType,DateUTC
2017-06-27 00:01:00,77.8,73.0,30.04,SW,225,2.0,-999.0,86,0.00,,,0.00,,2017-06-27 04:01:00,
2017-06-27 00:06:00,77.8,73.0,30.04,WSW,248,0.0,-999.0,86,0.00,,,0.00,,2017-06-27 04:06:00,
2017-06-27 00:11:00,77.8,73.0,30.03,South,180,3.0,-999.0,86,0.00,,,0.00,,2017-06-27 04:11:00,
2017-06-27 00:16:00,77.6,73.0,30.04,ESE,113,0.0,-999.0,86,0.00,,,0.00,,2017-06-27 04:16:00,
2017-06-27 00:21:00,77.6,73.0,30.04,SE,135,1.0,-999.0,86,0.00,,,0.00,,2017-06-27 04:21:00,
2017-06-27 00:26:00,77.6,73.0,30.05,SSW,203,1.0,-999.0,86,0.00,,,0.00,,2017-06-27 04:26:00,
2017-06-27 00:31:00,77.5,73.0,30.03,SSE,158,2.0,-999.0,86,0.00,,,0.00,,2017-06-27 04:31:00,
2017-06-27 00:36:00,77.5,73.0,30.04,NNE,23,2.0,-999.0,86,0.00,,,0.00,,2017-06-27 04:36:00,
2017-06-27 00:41:00,77.4,73.0,30.05,West,270,0.0,-999.0,88,0.00,,,0.00,,2017-06-27 04:41:00,
2017-06-27 00:47:00,77.1,73.0,30.04,WSW,248,0.0,-999.0,88,0.00,,,0.00,,2017-06-27 04:47:00,
2017-06-27 00:52:00,77.1,73.0,30.03,West,270,0.0,-999.0,88,0.00,,,0.00,,2017-06-27 04:52:00,
2017-06-27 00:57:00,76.9,73.0,30.02,SSW,203,0.0,-999.0,88,0.00,,,0.00,,2017-06-27 04:57:00,
2017-06-27 01:02:00,76.9,73.0,30.03,South,180,2.0,-999.0,88,0.00,,,0.00,,2017-06-27 05:02:00,
2017-06-27 01:07:00,76.8,73.0,30.04,West,270,0.0,-999.0,90,0.00,,,0.00,,2017-06-27 05:07:00,
2017-06-27 01:12:00,76.5,73.0,30.04,West,270,0.0,-999.0,91,0.00,,,0.00,,2017-06-27 05:12:00,
2017-06-27 01:17:00,76.5,73.0,30.03,WSW,248,0.0,-999.0,91,0.00,,,0.00,,2017-06-27 05:17:00,
2017-06-27 01:22:00,76.4,73.0,30.03,South,180,0.0,-999.0,91,0.00,,,0.00,,2017-06-27 05:22:00,
2017-06-27 01:27:00,76.3,73.0,30.03,SSW,203,0.0,-999.0,91,0.00,,,0.00,,2017-06-27 05:27:00,
2017-06-27 01:32:00,76.3,74.0,30.04,SW,225,0.0,-999.0,93,0.00,,,0.00,,2017-06-27 05:32:00,
2017-06-27 01:37:00,76.0,73.0,30.03,SE,135,0.0,-999.0,93,0.00,,,0.00,,2017-06-27 05:37:00,
2017-06-27 01:42:00,76.0,73.0,30.02,SE,135,0.0,-999.0,93,0.00,,,0.00,,2017-06-27 05:42:00,
2017-06-27 01:47:00,75.9,73.0,30.02,SE,135,0.0,-999.0,93,0.00,,,0.00,,2017-06-27 05:47:00,
2017-06-27 01:52:00,75.9,73.0,30.03,SE,135,0.0,-999.0,93,0.00,,,0.00,,2017-06-27 05:52:00,
2017-06-27 01:57:00,75.9,73.0,30.03,SE,135,0.0,-999.0,93,0.00,,,0.00,,2017-06-27 05:57:00,
2017-06-27 02:02:00,75.9,74.0,30.01,SW,225,0.0,-999.0,93,0.00,,,0.00,,2017-06-27 06:02:00,
2017-06-27 02:07:00,75.9,74.0,30.01,SW,225,0.0,-999.0,95,0.00,,,0.00,,2017-06-27 06:07:00,
2017-06-27 02:12:00,75.6,74.0,30.01,West,270,0.0,-999.0,95,0.00,,,0.00,,2017-06-27 06:12:00,
2017-06-27 02:17:00,75.6,74.0,30.02,West,270,0.0,-999.0,95,0.00,,,0.00,,2017-06-27 06:17:00,
2017-06-27 02:22:00,75.6,74.0,30.02,West,270,0.0,-999.0,96,0.00,,,0.00,,2017-06-27 06:22:00,
2017-06-27 02:27:00,75.5,74.0,30.01,SE,135,0.0,-999.0,96,0.00,,,0.00,,2017-06-27 06:27:00,
2017-06-27 02:32:00,75.5,74.0,30.01,SSE,158,0.0,-999.0,96,0.00,,,0.00,,2017-06-27 06:32:00,
2017-06-27 02:37:00,75.3,74.0,30.01,SSE,158,0.0,-999.0,96,0.00,,,0.00,,2017-06-27 06:37:00,
2017-06-27 02:42:00,75.1,73.0,30.01,SSE,158,0.0,-999.0,96,0.00,,,0.00,,2017-06-27 06:42:00,
2017-06-27 02:47:00,75.1,74.0,30.00,SSE,158,0.0,-999.0,96,0.00,,,0.00,,2017-06-27 06:47:00,
2017-06-27 02:52:00,75.1,74.0,29.99,SSE,158,0.0,-999.0,98,0.00,,,0.00,,2017-06-27 06:52:00,
2017-06-27 03:03:00,75.0,74.0,29.99,SSW,203,0.0,-999.0,98,0.00,,,0.00,,2017-06-27 07:03:00,
2017-06-27 03:08:00,74.8,74.0,29.99,South,180,0.0,-999.0,98,0.00,,,0.00,,2017-06-27 07:08:00,
2017-06-27 03:13:00,74.8,74.0,30.00,West,270,0.0,-999.0,98,0.00,,,0.00,,2017-06-27 07:13:00,
2017-06-27 03:18:00,74.8,74.0,29.99,West,270,0.0,-999.0,98,0.00,,,0.00,,2017-06-27 07:18:00,
2017-06-27 03:23:00,74.8,74.0,30.00,West,270,0.0,-999.0,98,0.00,,,0.00,,2017-06-27 07:23:00,
2017-06-27 03:28:00,74.8,74.0,30.00,West,270,0.0,-999.0,98,0.00,,,0.00,,2017-06-27 07:28:00,
2017-06-27 03:33:00,74.8,74.0,29.98,West,270,0.0,-999.0,98,0.00,,,0.00,,2017-06-27 07:33:00,
2017-06-27 03:39:00,74.8,74.0,29.99,West,270,0.0,-999.0,98,0.00,,,0.00,,2017-06-27 07:39:00,
2017-06-27 03:44:00,74.8,74.0,29.99,SSW,203,0.0,-999.0,98,0.00,,,0.00,,2017-06-27 07:44:00,
2017-06-27 03:49:00,74.8,74.0,30.00,SSE,158,0.0,-999.0,98,0.00,,,0.00,,2017-06-27 07:49:00,
2017-06-27 03:54:00,74.8,74.0,29.99,SW,225,0.0,-999.0,98,0.00,,,0.00,,2017-06-27 07:54:00,
2017-06-27 03:59:00,74.8,74.0,30.00,West,270,0.0,-999.0,98,0.00,,,0.00,,2017-06-27 07:59:00,
2017-06-27 04:04:00,74.8,74.0,29.99,West,270,0.0,-999.0,98,0.00,,,0.00,,2017-06-27 08:04:00,
2017-06-27 04:09:00,74.8,74.0,29.98,West,270,0.0,-999.0,98,0.00,,,0.00,,2017-06-27 08:09:00,
2017-06-27 04:14:00,74.8,74.0,29.98,West,270,0.0,-999.0,98,0.00,,,0.00,,2017-06-27 08:14:00,
2017-06-27 04:20:00,74.6,74.0,29.99,West,270,0.0,-999.0,98,0.00,,,0.00,,2017-06-27 08:20:00,
2017-06-27 04:25:00,74.6,74.0,29.98,West,270,0.0,-999.0,98,0.00,,,0.00,,2017-06-27 08:25:00,
2017-06-27 04:30:00,74.6,74.0,29.99,West,270,0.0,-999.0,98,0.00,,,0.00,,2017-06-27 08:30:00,
2017-06-27 04:36:00,74.3,73.0,29.99,ESE,113,0.0,-999.0,98,0.00,,,0.00,,2017-06-27 08:36:00,
2017-06-27 04:41:00,74.3,73.0,29.99,ESE,113,0.0,-999.0,98,0.00,,,0.00,,2017-06-27 08:41:00,
2017-06-27 04:46:00,74.3,73.0,29.98,ESE,113,0.0,-999.0,98,0.00,,,0.00,,2017-06-27 08:46:00,
2017-06-27 04:51:00,74.3,73.0,29.98,ESE,113,0.0,-999.0,98,0.00,,,0.00,,2017-06-27 08:51:00,
2017-06-27 04:56:00,74.0,73.0,30.00,ESE,113,0.0,-999.0,98,0.00,,,0.00,,2017-06-27 08:56:00,
2017-06-27 05:01:00,74.0,73.0,29.98,ESE,113,0.0,-999.0,98,0.00,,,0.00,,2017-06-27 09:01:00,
2017-06-27 05:06:00,74.0,73.0,29.99,ESE,113,0.0,-999.0,98,0.00,,,0.00,,2017-06-27 09:06:00,
2017-06-27 05:12:00,73.9,73.0,29.99,ESE,113,0.0,-999.0,98,0.00,,,0.00,,2017-06-27 09:12:00,
2017-06-27 05:17:00,73.9,73.0,29.98,NW,315,0.0,-999.0,98,0.00,,,0.00,,2017-06-27 09:17:00,
2017-06-27 05:22:00,73.9,73.0,29.98,West,270,0.0,-999.0,98,0.00,,,0.00,,2017-06-27 09:22:00,
2017-06-27 05:27:00,74.0,73.0,29.99,West,270,0.0,-999.0,98,0.00,,,0.00,,2017-06-27 09:27:00,
2017-06-27 05:32:00,74.0,73.0,29.99,West,270,0.0,-999.0,98,0.00,,,0.00,,2017-06-27 09:32:00,
2017-06-27 05:37:00,74.0,73.0,29.98,West,270,0.0,-999.0,98,0.00,,,0.00,,2017-06-27 09:37:00,
2017-06-27 05:43:00,73.9,73.0,29.99,West,270,0.0,-999.0,98,0.00,,,0.00,,2017-06-27 09:43:00,
2017-06-27 05:48:00,73.9,73.0,29.98,West,270,0.0,-999.0,98,0.00,,,0.00,,2017-06-27 09:48:00,
2017-06-27 05:53:00,73.9,73.0,29.98,West,270,0.0,-999.0,98,0.00,,,0.00,,2017-06-27 09:53:00,
2017-06-27 05:58:00,73.9,73.0,30.00,West,270,0.0,-999.0,98,0.00,,,0.00,,2017-06-27 09:58:00,
2017-06-27 06:03:00,73.8,73.0,29.99,West,270,0.0,-999.0,98,0.00,,,0.00,,2017-06-27 10:03:00,
2017-06-27 06:08:00,73.8,73.0,29.99,West,270,0.0,-999.0,98,0.00,,,0.00,,2017-06-27 10:08:00,
2017-06-27 06:13:00,73.8,73.0,29.98,West,270,0.0,-999.0,98,0.00,,,0.00,,2017-06-27 10:13:00,
2017-06-27 06:18:00,73.8,73.0,30.00,WSW,248,0.0,-999.0,98,0.00,,,0.00,,2017-06-27 10:18:00,
2017-06-27 06:23:00,73.5,73.0,30.00,WSW,248,0.0,-999.0,98,0.00,,,0.00,,2017-06-27 10:23:00,
2017-06-27 06:28:00,73.5,73.0,29.99,WSW,248,0.0,-999.0,98,0.00,,,0.00,,2017-06-27 10:28:00,
2017-06-27 06:33:00,73.5,73.0,29.98,WSW,248,0.0,-999.0,98,0.00,,,0.00,,2017-06-27 10:33:00,
2017-06-27 06:38:00,73.5,73.0,30.00,NW,315,0.0,-999.0,98,0.00,,,0.00,,2017-06-27 10:38:00,
2017-06-27 06:43:00,73.5,73.0,30.00,SSW,203,0.0,-999.0,98,0.00,,,0.00,,2017-06-27 10:43:00,
2017-06-27 06:48:00,73.5,73.0,29.99,South,180,0.0,-999.0,98,0.00,,,0.00,,2017-06-27 10:48:00,
2017-06-27 06:53:00,73.5,73.0,29.99,South,180,0.0,-999.0,98,0.00,,,0.00,,2017-06-27 10:53:00,
2017-06-27 06:58:00,73.5,73.0,30.01,South,180,0.0,-999.0,98,0.00,,,0.00,,2017-06-27 10:58:00,
2017-06-27 07:03:00,73.5,73.0,30.00,South,180,0.0,-999.0,98,0.00,,,0.00,,2017-06-27 11:03:00,
2017-06-27 07:08:00,73.5,73.0,30.00,SSE,158,0.0,-999.0,98,0.00,,,0.00,,2017-06-27 11:08:00,
2017-06-27 07:13:00,73.8,73.0,30.00,SSE,158,0.0,-999.0,98,0.00,,,0.00,,2017-06-27 11:13:00,
2017-06-27 07:18:00,73.9,73.0,30.01,West,270,0.0,-999.0,98,0.00,,,0.00,,2017-06-27 11:18:00,
2017-06-27 07:23:00,74.4,74.0,30.01,NNW,338,0.0,-999.0,98,0.00,,,0.00,,2017-06-27 11:23:00,
2017-06-27 07:29:00,74.6,74.0,30.01,NNW,338,0.0,-999.0,98,0.00,,,0.00,,2017-06-27 11:29:00,
2017-06-27 07:34:00,75.0,74.0,29.99,NNW,338,0.0,-999.0,98,0.00,,,0.00,,2017-06-27 11:34:00,
2017-06-27 07:39:00,75.3,75.0,29.99,WNW,293,0.0,-999.0,98,0.00,,,0.00,,2017-06-27 11:39:00,
2017-06-27 07:44:00,75.5,75.0,30.00,NW,315,0.0,-999.0,98,0.00,,,0.00,,2017-06-27 11:44:00,
2017-06-27 07:49:00,76.3,75.0,30.01,WNW,293,0.0,-999.0,98,0.00,,,0.00,,2017-06-27 11:49:00,
2017-06-27 07:54:00,76.5,76.0,30.01,West,270,0.0,-999.0,98,0.00,,,0.00,,2017-06-27 11:54:00,
2017-06-27 07:59:00,76.5,76.0,30.01,NNW,338,0.0,-999.0,98,0.00,,,0.00,,2017-06-27 11:59:00,
2017-06-27 08:04:00,77.5,76.0,30.00,NNW,338,0.0,-999.0,98,0.00,,,0.00,,2017-06-27 12:04:00,
2017-06-27 08:09:00,78.1,77.0,30.01,ENE,68,0.0,-999.0,96,0.00,,,0.00,,2017-06-27 12:09:00,
2017-06-27 08:14:00,78.4,76.0,30.02,NNE,23,0.0,-999.0,95,0.00,,,0.00,,2017-06-27 12:14:00,
2017-06-27 08:19:00,78.5,77.0,30.02,North,0,0.0,-999.0,95,0.00,,,0.00,,2017-06-27 12:19:00,
2017-06-27 08:24:00,80.3,77.0,30.01,West,270,0.0,-999.0,91,0.00,,,0.00,,2017-06-27 12:24:00,
2017-06-27 08:29:00,80.5,77.0,30.01,West,270,0.0,-999.0,91,0.00,,,0.00,,2017-06-27 12:29:00,
2017-06-27 08:34:00,81.3,78.0,30.02,SSW,203,0.0,-999.0,91,0.00,,,0.00,,2017-06-27 12:34:00,
2017-06-27 08:39:00,82.3,78.0,30.02,WSW,248,0.0,-999.0,88,0.00,,,0.00,,2017-06-27 12:39:00,
2017-06-27 08:44:00,83.5,78.0,30.02,WSW,248,0.0,-999.0,86,0.00,,,0.00,,2017-06-27 12:44:00,
2017-06-27 08:49:00,83.9,78.0,30.01,West,270,2.0,-999.0,83,0.00,,,0.00,,2017-06-27 12:49:00,
2017-06-27 08:54:00,83.9,78.0,30.02,West,270,0.0,-999.0,83,0.00,,,0.00,,2017-06-27 12:54:00,
2017-06-27 08:59:00,85.5,78.0,30.03,South,180,2.0,-999.0,80,0.00,,,0.00,,2017-06-27 12:59:00,
2017-06-27 09:04:00,86.0,79.0,30.03,SW,225,1.0,-999.0,80,0.00,,,0.00,,2017-06-27 13:04:00,
2017-06-27 09:09:00,87.6,79.0,30.02,West,270,0.0,-999.0,76,0.00,,,0.00,,2017-06-27 13:09:00,
2017-06-27 09:14:00,87.6,79.0,30.02,West,270,2.0,-999.0,75,0.00,,,0.00,,2017-06-27 13:14:00,
2017-06-27 09:19:00,86.7,77.0,30.03,West,270,0.0,-999.0,74,0.00,,,0.00,,2017-06-27 13:19:00,
2017-06-27 09:24:00,86.0,77.0,30.03,West,270,1.0,-999.0,75,0.00,,,0.00,,2017-06-27 13:24:00,
2017-06-27 09:29:00,85.5,77.0,30.02,WNW,293,3.0,-999.0,76,0.00,,,0.00,,2017-06-27 13:29:00,
2017-06-27 09:34:00,85.5,77.0,30.02,SSW,203,1.0,-999.0,76,0.00,,,0.00,,2017-06-27 13:34:00,
2017-06-27 09:39:00,86.4,77.0,30.02,West,270,1.0,-999.0,75,0.00,,,0.00,,2017-06-27 13:39:00,
2017-06-27 09:44:00,85.7,77.0,30.03,West,270,2.0,-999.0,76,0.00,,,0.00,,2017-06-27 13:44:00,
2017-06-27 09:49:00,86.4,77.0,30.02,West,270,2.0,-999.0,75,0.00,,,0.00,,2017-06-27 13:49:00,
2017-06-27 09:54:00,86.9,77.0,30.01,West,270,2.0,-999.0,73,0.00,,,0.00,,2017-06-27 13:54:00,
2017-06-27 09:59:00,86.1,77.0,30.01,WNW,293,1.0,-999.0,75,0.00,,,0.00,,2017-06-27 13:59:00,
2017-06-27 10:00:00,86.9,77.0,30.02,West,270,1.0,-999.0,73,0.00,,,0.00,,2017-06-27 14:00:00,
2017-06-27 10:06:00,87.3,77.0,30.02,West,270,2.0,-999.0,71,0.00,,,0.00,,2017-06-27 14:06:00,
2017-06-27 10:11:00,87.8,77.0,30.02,West,270,2.0,-999.0,71,0.00,,,0.00,,2017-06-27 14:11:00,
2017-06-27 10:16:00,88.5,77.0,30.02,West,270,3.0,-999.0,70,0.00,,,0.00,,2017-06-27 14:16:00,
2017-06-27 10:21:00,88.6,77.0,30.02,West,270,2.0,-999.0,69,0.00,,,0.00,,2017-06-27 14:21:00,
2017-06-27 10:26:00,89.4,76.0,30.01,WNW,293,2.0,-999.0,65,0.00,,,0.00,,2017-06-27 14:26:00,
2017-06-27 10:31:00,89.0,75.0,30.02,West,270,3.0,-999.0,63,0.00,,,0.00,,2017-06-27 14:31:00,
2017-06-27 10:36:00,89.0,75.0,30.02,West,270,2.0,-999.0,63,0.00,,,0.00,,2017-06-27 14:36:00,
2017-06-27 10:41:00,89.6,76.0,30.01,WNW,293,2.0,-999.0,65,0.00,,,0.00,,2017-06-27 14:41:00,
2017-06-27 10:46:00,89.2,76.0,30.01,West,270,3.0,-999.0,65,0.00,,,0.00,,2017-06-27 14:46:00,
2017-06-27 10:51:00,90.0,76.0,30.02,North,0,3.0,-999.0,63,0.00,,,0.00,,2017-06-27 14:51:00,
2017-06-27 10:56:00,89.6,76.0,30.02,NE,45,3.0,-999.0,65,0.00,,,0.00,,2017-06-27 14:56:00,
2017-06-27 11:01:00,90.9,76.0,30.01,North,0,2.0,-999.0,63,0.00,,,0.00,,2017-06-27 15:01:00,
2017-06-27 11:06:00,91.1,76.0,30.01,WSW,248,2.0,-999.0,63,0.00,,,0.00,,2017-06-27 15:06:00,
2017-06-27 11:11:00,92.1,76.0,30.01,WNW,293,2.0,-999.0,60,0.00,,,0.00,,2017-06-27 15:11:00,
2017-06-27 11:16:00,91.4,76.0,30.02,West,270,1.0,-999.0,61,0.00,,,0.00,,2017-06-27 15:16:00,
2017-06-27 11:21:00,92.1,77.0,30.02,West,270,3.0,-999.0,61,0.00,,,0.00,,2017-06-27 15:21:00,
2017-06-27 11:26:00,88.2,75.0,30.01,WNW,293,1.0,-999.0,65,0.00,,,0.00,,2017-06-27 15:26:00,
2017-06-27 11:31:00,90.9,76.0,30.01,West,270,2.0,-999.0,63,0.00,,,0.00,,2017-06-27 15:31:00,
2017-06-27 11:36:00,91.1,75.0,30.03,West,270,4.0,-999.0,61,0.00,,,0.00,,2017-06-27 15:36:00,
2017-06-27 11:41:00,92.1,76.0,30.03,East,90,1.0,-999.0,60,0.00,,,0.00,,2017-06-27 15:41:00,
2017-06-27 11:46:00,90.6,75.0,30.01,WNW,293,2.0,-999.0,61,0.00,,,0.00,,2017-06-27 15:46:00,
2017-06-27 11:51:00,93.1,76.0,30.01,West,270,4.0,-999.0,59,0.00,,,0.00,,2017-06-27 15:51:00,
2017-06-27 11:56:00,92.5,75.0,30.01,WNW,293,3.0,-999.0,56,0.00,,,0.00,,2017-06-27 15:56:00,
2017-06-27 12:01:00,92.6,75.0,30.02,West,270,3.0,-999.0,58,0.00,,,0.00,,2017-06-27 16:01:00,
2017-06-27 12:06:00,92.5,76.0,30.01,WSW,248,2.0,-999.0,59,0.00,,,0.00,,2017-06-27 16:06:00,
2017-06-27 12:12:00,90.6,74.0,30.02,ENE,68,3.0,-999.0,60,0.00,,,0.00,,2017-06-27 16:12:00,
2017-06-27 12:17:00,90.0,74.0,30.01,West,270,2.0,-999.0,60,0.00,,,0.00,,2017-06-27 16:17:00,
2017-06-27 12:22:00,91.9,75.0,30.00,East,90,3.0,-999.0,59,0.00,,,0.00,,2017-06-27 16:22:00,
2017-06-27 12:24:00,93.0,75.0,30.01,West,270,4.0,-999.0,56,0.00,,,0.00,,2017-06-27 16:24:00,
2017-06-27 12:29:00,91.9,74.0,30.00,West,270,3.0,-999.0,56,0.00,,,0.00,,2017-06-27 16:29:00,
2017-06-27 12:34:00,91.0,74.0,30.01,West,270,5.0,-999.0,59,0.00,,,0.00,,2017-06-27 16:34:00,
2017-06-27 12:39:00,91.0,75.0,30.02,WNW,293,1.0,-999.0,60,0.00,,,0.00,,2017-06-27 16:39:00,
2017-06-27 12:44:00,90.9,75.0,30.00,WSW,248,2.0,-999.0,60,0.00,,,0.00,,2017-06-27 16:44:00,
2017-06-27 12:49:00,89.2,74.0,30.00,West,270,2.0,-999.0,63,0.00,,,0.00,,2017-06-27 16:49:00,
2017-06-27 12:54:00,92.1,76.0,30.00,West,270,2.0,-999.0,60,0.00,,,0.00,,2017-06-27 16:54:00,
2017-06-27 12:58:00,93.4,76.0,30.00,NNE,23,6.0,-999.0,58,0.00,,,0.00,,2017-06-27 16:58:00,
2017-06-27 13:03:00,94.3,75.0,30.01,West,270,5.0,-999.0,54,0.00,,,0.00,,2017-06-27 17:03:00,
2017-06-27 13:08:00,93.4,74.0,30.00,West,270,4.0,-999.0,55,0.00,,,0.00,,2017-06-27 17:08:00,
2017-06-27 13:13:00,93.6,73.0,30.00,West,270,4.0,-999.0,53,0.00,,,0.00,,2017-06-27 17:13:00,
2017-06-27 13:18:00,94.0,75.0,30.00,WNW,293,2.0,-999.0,55,0.00,,,0.00,,2017-06-27 17:18:00,
2017-06-27 13:23:00,91.5,74.0,30.00,West,270,3.0,-999.0,58,0.00,,,0.00,,2017-06-27 17:23:00,
2017-06-27 13:28:00,92.3,74.0,29.99,WNW,293,2.0,-999.0,56,0.00,,,0.00,,2017-06-27 17:28:00,
2017-06-27 13:33:00,94.3,75.0,29.99,SSE,158,2.0,-999.0,54,0.00,,,0.00,,2017-06-27 17:33:00,
2017-06-27 13:38:00,95.6,75.0,29.99,ENE,68,4.0,-999.0,51,0.00,,,0.00,,2017-06-27 17:38:00,
2017-06-27 13:43:00,94.8,74.0,29.99,West,270,3.0,-999.0,51,0.00,,,0.00,,2017-06-27 17:43:00,
2017-06-27 13:48:00,94.0,74.0,29.99,West,270,1.0,-999.0,53,0.00,,,0.00,,2017-06-27 17:48:00,
2017-06-27 13:53:00,95.1,75.0,29.99,WSW,248,2.0,-999.0,53,0.00,,,0.00,,2017-06-27 17:53:00,
2017-06-27 13:58:00,93.9,74.0,29.97,East,90,4.0,-999.0,54,0.00,,,0.00,,2017-06-27 17:58:00,
2017-06-27 14:03:00,92.8,74.0,29.98,West,270,1.0,-999.0,55,0.00,,,0.00,,2017-06-27 18:03:00,
2017-06-27 14:08:00,91.4,73.0,29.98,WNW,293,3.0,-999.0,55,0.00,,,0.00,,2017-06-27 18:08:00,
2017-06-27 14:13:00,93.1,74.0,29.97,West,270,2.0,-999.0,54,0.00,,,0.00,,2017-06-27 18:13:00,
2017-06-27 14:18:00,91.8,74.0,29.97,West,270,1.0,-999.0,56,0.00,,,0.00,,2017-06-27 18:18:00,
2017-06-27 14:23:00,93.4,74.0,29.97,West,270,4.0,-999.0,55,0.00,,,0.00,,2017-06-27 18:23:00,
2017-06-27 14:28:00,94.0,75.0,29.97,West,270,1.0,-999.0,55,0.00,,,0.00,,2017-06-27 18:28:00,
2017-06-27 14:33:00,95.1,74.0,29.97,West,270,4.0,-999.0,51,0.00,,,0.00,,2017-06-27 18:33:00,
2017-06-27 14:39:00,95.3,73.0,29.97,North,0,2.0,-999.0,50,0.00,,,0.00,,2017-06-27 18:39:00,
2017-06-27 14:44:00,94.0,74.0,29.96,ENE,68,6.0,-999.0,53,0.00,,,0.00,,2017-06-27 18:44:00,
2017-06-27 14:49:00,92.3,73.0,29.96,West,270,3.0,-999.0,55,0.00,,,0.00,,2017-06-27 18:49:00,
2017-06-27 14:54:00,91.9,74.0,29.97,West,270,4.0,-999.0,56,0.00,,,0.00,,2017-06-27 18:54:00,
2017-06-27 14:59:00,94.0,74.0,29.96,West,270,2.0,-999.0,53,0.00,,,0.00,,2017-06-27 18:59:00,
2017-06-27 15:04:00,94.0,73.0,29.96,West,270,3.0,-999.0,51,0.00,,,0.00,,2017-06-27 19:04:00,
2017-06-27 15:09:00,93.4,74.0,29.96,West,270,1.0,-999.0,55,0.00,,,0.00,,2017-06-27 19:09:00,
2017-06-27 15:14:00,93.1,73.0,29.96,WSW,248,2.0,-999.0,53,0.00,,,0.00,,2017-06-27 19:14:00,
2017-06-27 15:19:00,91.5,73.0,29.96,West,270,3.0,-999.0,55,0.00,,,0.00,,2017-06-27 19:19:00,
2017-06-27 15:24:00,92.3,73.0,29.96,WNW,293,2.0,-999.0,55,0.00,,,0.00,,2017-06-27 19:24:00,
2017-06-27 15:29:00,90.9,73.0,29.96,West,270,3.0,-999.0,55,0.00,,,0.00,,2017-06-27 19:29:00,
2017-06-27 15:34:00,91.8,73.0,29.97,North,0,5.0,-999.0,55,0.00,,,0.00,,2017-06-27 19:34:00,
2017-06-27 15:39:00,91.9,73.0,29.97,West,270,1.0,-999.0,55,0.00,,,0.00,,2017-06-27 19:39:00,
2017-06-27 15:44:00,92.3,73.0,29.97,West,270,4.0,-999.0,54,0.00,,,0.00,,2017-06-27 19:44:00,
2017-06-27 15:49:00,91.1,72.0,29.96,West,270,3.0,-999.0,55,0.00,,,0.00,,2017-06-27 19:49:00,
2017-06-27 15:54:00,92.3,74.0,29.97,WSW,248,1.0,-999.0,55,0.00,,,0.00,,2017-06-27 19:54:00,
2017-06-27 15:59:00,91.1,72.0,29.96,NNW,338,3.0,-999.0,55,0.00,,,0.00,,2017-06-27 19:59:00,
2017-06-27 16:04:00,91.5,73.0,29.96,SW,225,1.0,-999.0,55,0.00,,,0.00,,2017-06-27 20:04:00,
2017-06-27 16:09:00,92.1,72.0,29.96,WNW,293,2.0,-999.0,53,0.00,,,0.00,,2017-06-27 20:09:00,
2017-06-27 16:14:00,91.1,72.0,29.95,West,270,2.0,-999.0,54,0.00,,,0.00,,2017-06-27 20:14:00,
2017-06-27 16:19:00,91.0,72.0,29.95,West,270,2.0,-999.0,55,0.00,,,0.00,,2017-06-27 20:19:00,
2017-06-27 16:24:00,91.0,73.0,29.95,West,270,3.0,-999.0,55,0.00,,,0.00,,2017-06-27 20:24:00,
2017-06-27 16:29:00,90.9,73.0,29.94,West,270,2.0,-999.0,56,0.00,,,0.00,,2017-06-27 20:29:00,
2017-06-27 16:34:00,90.5,72.0,29.94,West,270,2.0,-999.0,55,0.00,,,0.00,,2017-06-27 20:34:00,
2017-06-27 16:40:00,90.1,71.0,29.95,NW,315,2.0,-999.0,55,0.00,,,0.00,,2017-06-27 20:40:00,
2017-06-27 16:45:00,90.5,72.0,29.94,West,270,3.0,-999.0,55,0.00,,,0.00,,2017-06-27 20:45:00,
2017-06-27 16:50:00,90.5,72.0,29.94,WNW,293,3.0,-999.0,55,0.00,,,0.00,,2017-06-27 20:50:00,
2017-06-27 16:55:00,90.1,72.0,29.94,West,270,4.0,-999.0,56,0.00,,,0.00,,2017-06-27 20:55:00,
2017-06-27 17:00:00,90.1,72.0,29.94,NNW,338,4.0,-999.0,56,0.00,,,0.00,,2017-06-27 21:00:00,
2017-06-27 17:05:00,90.3,72.0,29.94,West,270,4.0,-999.0,56,0.00,,,0.00,,2017-06-27 21:05:00,
2017-06-27 17:10:00,90.1,72.0,29.94,WNW,293,4.0,-999.0,56,0.00,,,0.00,,2017-06-27 21:10:00,
2017-06-27 17:15:00,90.0,72.0,29.95,West,270,3.0,-999.0,55,0.00,,,0.00,,2017-06-27 21:15:00,
2017-06-27 17:20:00,90.1,72.0,29.95,West,270,2.0,-999.0,56,0.00,,,0.00,,2017-06-27 21:20:00,
2017-06-27 17:25:00,89.6,72.0,29.96,West,270,3.0,-999.0,58,0.00,,,0.00,,2017-06-27 21:25:00,
2017-06-27 17:30:00,89.4,72.0,29.95,NNE,23,1.0,-999.0,58,0.00,,,0.00,,2017-06-27 21:30:00,
2017-06-27 17:35:00,89.2,71.0,29.95,NNE,23,3.0,-999.0,56,0.00,,,0.00,,2017-06-27 21:35:00,
2017-06-27 17:40:00,89.4,73.0,29.95,West,270,3.0,-999.0,59,0.00,,,0.00,,2017-06-27 21:40:00,
2017-06-27 17:45:00,89.2,72.0,29.95,SSW,203,1.0,-999.0,58,0.00,,,0.00,,2017-06-27 21:45:00,
2017-06-27 17:50:00,89.4,73.0,29.95,West,270,5.0,-999.0,59,0.00,,,0.00,,2017-06-27 21:50:00,